TimeMDT,TemperatureF,Dew PointF,Humidity,Sea Level PressureIn,VisibilityMPH,Wind Direction,Wind SpeedMPH,Gust SpeedMPH,PrecipitationIn,Events,Conditions,WindDirDegrees,DateUTC
12:56 AM,48.9,48.0,97,29.93,-9999.0,SW,5.8,-,N/A,,Unknown,220,2013-09-24 06:56:00
1:56 AM,46.9,46.0,97,29.95,-9999.0,SSW,5.8,-,N/A,,Unknown,200,2013-09-24 07:56:00
2:56 AM,48.9,48.0,97,29.95,-9999.0,WSW,4.6,-,N/A,,Unknown,250,2013-09-24 08:56:00
3:56 AM,48.0,46.9,96,29.96,-9999.0,West,3.5,-,N/A,,Unknown,280,2013-09-24 09:56:00
4:56 AM,46.9,46.0,97,29.97,-9999.0,West,3.5,-,N/A,,Unknown,280,2013-09-24 10:56:00
5:56 AM,48.0,45.0,89,29.98,-9999.0,West,3.5,-,N/A,,Unknown,270,2013-09-24 11:56:00
6:56 AM,48.9,44.1,83,29.99,-9999.0,West,4.6,-,N/A,,Unknown,270,2013-09-24 12:56:00
7:56 AM,52.0,46.9,83,30.01,-9999.0,WSW,4.6,-,N/A,,Unknown,250,2013-09-24 13:56:00
8:56 AM,57.9,48.9,72,30.00,-9999.0,SW,4.6,-,N/A,,Unknown,230,2013-09-24 14:56:00
9:56 AM,63.0,51.1,65,30.00,-9999.0,SW,9.2,-,N/A,,Unknown,220,2013-09-24 15:56:00
10:56 AM,68.0,46.9,47,29.99,-9999.0,SSW,12.7,-,N/A,,Unknown,200,2013-09-24 16:56:00
11:56 AM,71.1,46.0,41,29.97,-9999.0,South,15.0,-,N/A,,Unknown,190,2013-09-24 17:56:00
12:56 PM,73.0,43.0,34,29.95,-9999.0,SSW,17.3,23.0,N/A,,Unknown,200,2013-09-24 18:56:00
1:56 PM,75.0,39.0,27,29.92,-9999.0,SSW,17.3,23.0,N/A,,Unknown,210,2013-09-24 19:56:00
2:56 PM,75.0,41.0,29,29.89,-9999.0,SSW,16.1,21.9,N/A,,Unknown,200,2013-09-24 20:56:00
3:56 PM,75.0,41.0,29,29.87,-9999.0,SSE,16.1,-,N/A,,Unknown,160,2013-09-24 21:56:00
4:56 PM,75.0,37.9,26,29.86,-9999.0,South,18.4,-,N/A,,Unknown,170,2013-09-24 22:56:00
5:56 PM,72.0,42.1,34,29.85,-9999.0,SSE,11.5,-,N/A,,Unknown,160,2013-09-24 23:56:00
6:56 PM,64.9,41.0,42,29.84,-9999.0,SE,12.7,-,N/A,,Unknown,140,2013-09-25 00:56:00
7:56 PM,63.0,39.9,43,29.83,-9999.0,SE,16.1,-,N/A,,Unknown,140,2013-09-25 01:56:00
8:56 PM,61.0,39.9,46,29.83,-9999.0,SE,13.8,-,N/A,,Unknown,140,2013-09-25 02:56:00
9:56 PM,60.1,39.9,47,29.82,-9999.0,SSE,15.0,-,N/A,,Unknown,150,2013-09-25 03:56:00
10:56 PM,57.0,41.0,55,29.80,-9999.0,SSE,16.1,-,N/A,,Unknown,150,2013-09-25 04:56:00
11:56 PM,57.9,41.0,53,29.77,-9999.0,SSE,17.3,24.2,N/A,,Unknown,150,2013-09-25 05:56:00